FENGYUN 1C DEB

Satellite information

Favourite Embed

Satellite Type and Status

DEBRISIN ORBIT

Key statistics

Satellite FENGYUN 1C DEB at a glance.

Uptime

9496

Days in orbit

Revolutions

≈ 14.4

Per day

Orbit

SSO

Sun Synchronous Orbit

Inclination

98.3

Latest

Satellite identification and parameters

Extended collection of information and parameters for FENGYUN 1C DEB.

Object identification

Identified? True

Debris? True

Object name: FENGYUN 1C DEB

International designator: 1999-025EVJ

Object number (NORAD): 38818

Object ID (CCSDS): 38818

Country: PEOPLES REPUBLIC OF CHINA (PRC)

Current information (Y/N): Y

RCS size: SMALL

Orbital parameters

Period: 100.086 minutes

Inclination: 98.3216 deg

SMA: 7140.73 km

Apoapsis: 826.492 km

Periapsis: 698.698 km

RAAN: 184.5445 deg

Eccentricy: 0.0089482

Argument of periapsis: 57.4786 deg

Mean anomaly: 2.1267 deg

Mean motion: 14.38761566 rev/day

Mean motion (dot): 0.00002209 rev/day2

B* drag term: 0.00069984 1/REarth

Two-line elements (TLE)

Creation date: May 2, 2025, 2:33 a.m.

Reference frame: TEME

Reference center: EARTH

Epoch: May 1, 2025, 9:53 a.m. UTC

TLE line 0: 0 FENGYUN 1C DEB

TLE line 1: 1 38818U 99025EVJ 25121.41222429 .00002209 00000-0 69984-3 0 9992

TLE line 2: 2 38818 98.3216 184.5445 0089482 57.4786 2.1267 14.38761566640070

Live tracking on map

Real-time ground track for satellite FENGYUN 1C DEB.

In-orbit conjunctions

A list of the most updated potential collisions computed for object FENGYUN 1C DEB.

Target Orbit TCA Probability of collision Miss distance Type
CZ-6A DEB SSO 2024-11-15 02:28:10 0.0001816101 478.0 (m) DEBRIS
THOR BURNER 2 R/B SSO 2024-11-13 15:11:42 0.0006084154 393.0 (m) ROCKET BODY

Associated space launch

Chinese polar orbiting meteorological satellite

FENGYUN 1C DEB was lifted into orbit during the mission ‘Long March 4B | Feng Yun 1C’, on board a Long March 4B space rocket.

The launch took place on May 10, 1999, 1:33 a.m. from Launch Complex 7.

For more information about the launch, click the button.

Launch to space Long March 4B | Feng Yun 1C
Long March 4B | Feng Yun 1C

Agency: N/A

Status: Launch Successful

Launch date: May 10, 1999, 1:33 a.m. UTC

Rocket: Long March 4B

Launch pad: Launch Complex 7

Location: Taiyuan Satellite Launch Center, People's Republic of China

...

Latest news about this satellite

There are no fresh news available about this satellite. Check back as we update our databases every day.


Newsletter sign-up

Weekly statistics, charts and insights to help you stay on top of the space industry.